This is the latest recevied weather packets stored in our database for station/object DW9280. If no packets are shown the sender has not sent any weather packets the latest 10 day(s).
| Time | Temp. | Humidity | Pressure | Rain* | Wind** | Luminosity | Snow |
|---|---|---|---|---|---|---|---|
| 1788060784 | 17.78° C | 95% | 1004.7 hPa | 0.25 mm | - | 0 W/m² | - |
| 1788060528 | 17.78° C | 95% | 1004.7 hPa | 0.51 mm | - | 0 W/m² | - |
| 1788060183 | 18.33° C | 95% | 1004.6 hPa | 1.02 mm | - | 0 W/m² | - |
| 1788059883 | 18.33° C | 95% | 1004.6 hPa | 1.52 mm | - | 0 W/m² | - |
| 1788059583 | 18.33° C | 95% | 1004.5 hPa | 2.29 mm | - | 0 W/m² | - |
| 1788059285 | 18.33° C | 95% | 1004.5 hPa | 2.79 mm | - | 0 W/m² | - |
| 1788058984 | 18.33° C | 95% | 1004.5 hPa | 3.05 mm | - | 0 W/m² | - |
| 1788058683 | 18.33° C | 95% | 1004.4 hPa | 3.05 mm | - | 0 W/m² | - |
| 1788058383 | 18.33° C | 95% | 1004.4 hPa | 3.56 mm | - | 0 W/m² | - |
| 1788058120 | 18.33° C | 95% | 1004.3 hPa | 3.81 mm | - | 0 W/m² | - |
| 1788057784 | 18.33° C | 94% | 1004.3 hPa | 3.81 mm | - | 0 W/m² | - |
| 1788057482 | 18.33° C | 94% | 1004.3 hPa | 3.81 mm | - | 0 W/m² | - |
| 1788057183 | 18.33° C | 94% | 1004.4 hPa | 3.81 mm | - | 0 W/m² | - |
| 1788056922 | 18.33° C | 94% | 1004.2 hPa | 3.56 mm | - | 0 W/m² | - |
| 1788056585 | 18.89° C | 94% | 1004.3 hPa | 3.05 mm | - | 0 W/m² | - |
| 1788056283 | 18.89° C | 94% | 1004.2 hPa | 2.54 mm | - | 0 W/m² | - |
| 1788056022 | 18.89° C | 94% | 1004.2 hPa | 1.78 mm | - | 0 W/m² | - |
| 1788055682 | 18.89° C | 94% | 1004.2 hPa | 1.27 mm | - | 0 W/m² | - |
| 1788055385 | 18.89° C | 94% | 1004.2 hPa | 1.02 mm | - | 0 W/m² | - |
| 1788055117 | 18.89° C | 94% | 1004 hPa | 0.76 mm | - | 0 W/m² | - |
| 1788054785 | 18.89° C | 94% | 1004.1 hPa | 0.51 mm | - | 0 W/m² | - |
| 1788054512 | 18.33° C | 94% | 1004.1 hPa | 0 mm | - | 0 W/m² | - |
| 1788054185 | 18.33° C | 94% | 1004.1 hPa | 0 mm | - | 0 W/m² | - |
| 1788053884 | 18.33° C | 94% | 1004 hPa | 0 mm | - | 0 W/m² | - |
| 1788053585 | 18.33° C | 94% | 1004 hPa | 0 mm | - | 0 W/m² | - |
* Rain latest hour (hover to see other rain measurements)
** Current wind speed in m/s (hover to see current wind gust speed)